Location: Biharia
(46.4333°N, 22.8000°E)
Time: 22:51:45
(UTC+00:00)

HJ-1C - Pass Details

Date: 16 October 2021
Orbit: 423 x 433 km, 97.1° (Epoch: 26 November)

Event Time Altitude Azimuth Distance (km) Brightness Sun altitude
Exits shadow 17:19:22 22° 166° (SSE) 987 4.9 -17.8°
Maximum altitude 17:21:21 88° 86° (E) 431 3.2 -18.2°
Drops below altitude 10° 17:24:37 10° 348° (NNW) 1,526 6.3 -18.7°
Sets 17:26:38 0° 348° (NNW) 2,399 7.3 -19.1°
